Lander, WY

10:14 PM MST on February 23, 2017 (GMT -0700)
Hunt

Weather History for KLND - August, 2013

Change the Weather History Date:

Monday, August 19, 2013

  Actual Average Record
Temperature  
Mean Temperature 76 °F 69 °F  
Max Temperature 96 °F 85 °F 96 °F (2013)
Min Temperature 56 °F 54 °F 38 °F (1912)
Degree Days  
Heating Degree Days 0 1  
Month to date heating degree days 0 7  
Since 1 June heating degree days 54 149  
Since 1 July heating degree days 0 23  
Cooling Degree Days 11 5  
Month to date cooling degree days 153 121  
Year to date cooling degree days 570 398  
Since 1 June cooling degree days 561 393  
Growing Degree Days 28 (Base 50)    
Moisture  
Dew Point 34 °F    
Average Humidity 27    
Maximum Humidity 44    
Minimum Humidity 9    
Precipitation  
Precipitation 0.00 in 0.01 in 1.00 in (1979)
Month to date precipitation 0.01 0.41  
Year to date precipitation 7.86 8.68  
Snow  
Snow 0.00 in 0.00 in - ()
Month to date snowfall 0.0 0.0  
Since 1 June snowfall 0.0 0.1  
Since 1 July snowfall 0.0 0.0  
Snow Depth 0.00 in    
Sea Level Pressure  
Sea Level Pressure 29.87 in    
Wind  
Wind Speed 7 mph (WNW)    
Max Wind Speed 21 mph    
Max Gust Speed 26 mph    
Visibility 10 miles    
Events      
T = Trace of Precipitation, MM = Missing Value Source: NWS Daily Summary

Daily Weather History Graph

Daily Weather History Graph

Search for Another Location

Airport or City:

Trip Planner

Search our weather history database for the weather conditions in past years. The results will help you decide how hot, cold, wet, or windy it might be!

Date:

Astronomy

Aug. 19, 2013 Rise Set
Actual Time 6:25 AM MDT 8:10 PM MDT
Civil Twilight 5:55 AM MDT 8:40 PM MDT
Nautical Twilight 5:19 AM MDT 9:16 PM MDT
Astronomical Twilight 4:39 AM MDT 9:56 PM MDT
Moon 7:03 PM MDT (8/19) 4:47 AM MDT (8/19)
Length of Visible Light 14h 44m
Length of Day
13h 44m
Waxing Gibbous, 97% of the Moon is Illuminated
Aug 19
Waxing Gibbous
Aug 20
Full
Aug 28
Last Quarter
Sep 5
New
Sep 12
First Quarter

Hourly Weather History & Observations

Time (MDT) Temp. Dew Point Humidity Pressure Visibility Wind Dir Wind Speed Gust Speed Precip Events Conditions
12:53 AM 70.0 °F 36.0 °F 29% 29.91 in 10.0 mi West 10.4 mph - N/A   Clear
1:53 AM 70.0 °F 35.1 °F 28% 29.91 in 10.0 mi WSW 11.5 mph - N/A   Clear
2:53 AM 68.0 °F 33.1 °F 27% 29.91 in 10.0 mi WSW 6.9 mph - N/A   Clear
3:53 AM 64.9 °F 34.0 °F 32% 29.91 in 10.0 mi West 9.2 mph - N/A   Clear
4:53 AM 63.0 °F 33.1 °F 33% 29.92 in 10.0 mi West 6.9 mph - N/A   Clear
5:53 AM 61.0 °F 36.0 °F 39% 29.93 in 10.0 mi SE 3.5 mph - N/A   Clear
6:53 AM 59.0 °F 37.0 °F 44% 29.95 in 9.0 mi Calm Calm - N/A   Clear
7:53 AM 62.1 °F 37.9 °F 41% 29.96 in 10.0 mi North 4.6 mph - N/A   Clear
8:53 AM 68.0 °F 37.0 °F 32% 29.96 in 10.0 mi Calm Calm - N/A   Clear
9:53 AM 75.9 °F 41.0 °F 29% 29.94 in 9.0 mi East 3.5 mph - N/A   Clear
10:53 AM 80.1 °F 46.9 °F 31% 29.93 in 9.0 mi NNW 8.1 mph - N/A   Clear
11:53 AM 86.0 °F 42.1 °F 21% 29.90 in 9.0 mi Variable 5.8 mph - N/A   Clear
12:53 PM 91.0 °F 35.1 °F 14% 29.87 in 7.0 mi NNE 10.4 mph - N/A   Clear
1:53 PM 93.0 °F 30.0 °F 11% 29.84 in 8.0 mi NNE 6.9 mph - N/A   Clear
2:53 PM 93.9 °F 30.0 °F 10% 29.83 in 9.0 mi North 9.2 mph - N/A   Clear
3:53 PM 96.1 °F 28.0 °F 9% 29.80 in 10.0 mi WNW 11.5 mph 20.7 mph N/A   Clear
4:53 PM 95.0 °F 26.1 °F 9% 29.79 in 10.0 mi West 12.7 mph 25.3 mph N/A   Clear
5:53 PM 93.9 °F 27.0 °F 9% 29.78 in 10.0 mi Variable 5.8 mph - N/A   Clear
6:53 PM 91.0 °F 30.0 °F 11% 29.79 in 10.0 mi West 11.5 mph - N/A   Clear
7:53 PM 84.0 °F 32.0 °F 15% 29.81 in 10.0 mi WSW 8.1 mph - N/A   Clear
8:53 PM 81.0 °F 28.0 °F 14% 29.82 in 10.0 mi WNW 4.6 mph - N/A   Clear
9:53 PM 78.1 °F 30.9 °F 18% 29.83 in 10.0 mi West 8.1 mph - N/A   Clear
10:53 PM 75.9 °F 32.0 °F 20% 29.83 in 10.0 mi South 4.6 mph - N/A   Clear
11:53 PM 73.0 °F 33.1 °F 23% 29.83 in 10.0 mi Variable 3.5 mph - N/A   Clear